Time,TemperatureF,DewpointF,PressureIn,WindDirection,WindDirectionDegrees,WindSpeedMPH,WindSpeedGustMPH,Humidity,HourlyPrecipIn,Conditions,Clouds,dailyrainin,SoftwareType,DateUTC
2013-06-14 00:14:00,54.9,51.0,30.20,SW,231,0.0,2.0,85,0.00,,,0.00,weatherlink.com 1.10,2013-06-14 07:14:00,
2013-06-14 00:29:00,54.5,50.0,30.20,ENE,75,1.0,3.0,86,0.00,,,0.00,weatherlink.com 1.10,2013-06-14 07:29:00,
2013-06-14 00:44:00,54.8,51.0,30.20,ENE,57,5.0,6.0,86,0.00,,,0.00,weatherlink.com 1.10,2013-06-14 07:44:00,
2013-06-14 00:59:00,55.2,51.0,30.20,ENE,72,2.0,5.0,85,0.00,,,0.00,weatherlink.com 1.10,2013-06-14 07:59:00,
2013-06-14 01:14:00,55.1,51.0,30.20,SSE,168,4.0,5.0,85,0.00,,,0.00,weatherlink.com 1.10,2013-06-14 08:14:00,
2013-06-14 01:29:00,54.8,50.0,30.20,SSE,165,3.0,6.0,85,0.00,,,0.00,weatherlink.com 1.10,2013-06-14 08:29:00,
2013-06-14 01:44:00,54.5,50.0,30.20,South,181,2.0,4.0,85,0.00,,,0.00,weatherlink.com 1.10,2013-06-14 08:44:00,
2013-06-14 01:59:00,54.2,50.0,30.20,SSE,147,2.0,5.0,85,0.00,,,0.00,weatherlink.com 1.10,2013-06-14 08:59:00,
2013-06-14 02:14:00,54.4,50.0,30.19,SE,143,2.0,6.0,85,0.00,,,0.00,weatherlink.com 1.10,2013-06-14 09:14:00,
2013-06-14 02:29:00,54.3,50.0,30.20,SE,134,3.0,7.0,85,0.00,,,0.00,weatherlink.com 1.10,2013-06-14 09:29:00,
2013-06-14 02:44:00,54.3,50.0,30.19,ESE,112,2.0,5.0,85,0.00,,,0.00,weatherlink.com 1.10,2013-06-14 09:44:00,
2013-06-14 02:59:00,54.2,50.0,30.19,SSW,197,1.0,5.0,86,0.00,,,0.00,weatherlink.com 1.10,2013-06-14 09:59:00,
2013-06-14 03:14:00,54.0,50.0,30.19,SSE,165,1.0,3.0,86,0.00,,,0.00,weatherlink.com 1.10,2013-06-14 10:14:00,
2013-06-14 03:29:00,54.2,50.0,30.19,SSW,210,2.0,5.0,86,0.00,,,0.00,weatherlink.com 1.10,2013-06-14 10:29:00,
2013-06-14 03:44:00,54.0,50.0,30.19,South,186,3.0,7.0,86,0.00,,,0.00,weatherlink.com 1.10,2013-06-14 10:44:00,
2013-06-14 03:59:00,53.9,50.0,30.19,South,187,5.0,7.0,86,0.00,,,0.00,weatherlink.com 1.10,2013-06-14 10:59:00,
2013-06-14 04:14:00,53.7,50.0,30.19,SE,135,4.0,5.0,87,0.00,,,0.00,weatherlink.com 1.10,2013-06-14 11:14:00,
2013-06-14 04:29:00,53.6,50.0,30.19,South,180,3.0,6.0,87,0.00,,,0.00,weatherlink.com 1.10,2013-06-14 11:29:00,
2013-06-14 04:44:00,53.3,50.0,30.19,SSE,151,4.0,7.0,88,0.00,,,0.00,weatherlink.com 1.10,2013-06-14 11:44:00,
2013-06-14 04:59:00,53.2,50.0,30.19,ESE,121,1.0,6.0,89,0.00,,,0.00,weatherlink.com 1.10,2013-06-14 11:59:00,
2013-06-14 05:14:00,53.1,50.0,30.20,SSE,159,3.0,4.0,89,0.00,,,0.00,weatherlink.com 1.10,2013-06-14 12:14:00,
2013-06-14 05:29:00,53.2,50.0,30.20,SSW,203,4.0,6.0,88,0.00,,,0.00,weatherlink.com 1.10,2013-06-14 12:29:00,
2013-06-14 05:44:00,53.3,50.0,30.20,South,170,2.0,7.0,87,0.00,,,0.00,weatherlink.com 1.10,2013-06-14 12:44:00,
2013-06-14 05:59:00,53.3,50.0,30.20,South,191,1.0,6.0,87,0.00,,,0.00,weatherlink.com 1.10,2013-06-14 12:59:00,
2013-06-14 06:14:00,53.4,49.0,30.20,SW,217,1.0,6.0,86,0.00,,,0.00,weatherlink.com 1.10,2013-06-14 13:14:00,
2013-06-14 06:29:00,53.5,49.0,30.20,SSW,197,3.0,9.0,85,0.00,,,0.00,weatherlink.com 1.10,2013-06-14 13:29:00,
2013-06-14 06:44:00,53.6,50.0,30.20,SSE,156,4.0,8.0,86,0.00,,,0.00,weatherlink.com 1.10,2013-06-14 13:44:00,
2013-06-14 06:59:00,53.5,49.0,30.20,South,180,4.0,7.0,85,0.00,,,0.00,weatherlink.com 1.10,2013-06-14 13:59:00,
2013-06-14 07:14:00,53.5,49.0,30.20,South,183,6.0,8.0,85,0.00,,,0.00,weatherlink.com 1.10,2013-06-14 14:14:00,
2013-06-14 07:29:00,53.4,50.0,30.20,SSE,165,4.0,8.0,87,0.00,,,0.00,weatherlink.com 1.10,2013-06-14 14:29:00,
2013-06-14 07:44:00,53.2,50.0,30.20,SSW,193,8.0,11.0,88,0.00,,,0.00,weatherlink.com 1.10,2013-06-14 14:44:00,
2013-06-14 07:59:00,53.2,50.0,30.20,South,174,6.0,10.0,88,0.00,,,0.00,weatherlink.com 1.10,2013-06-14 14:59:00,
2013-06-14 08:14:00,53.1,50.0,30.21,SSE,162,4.0,8.0,89,0.00,,,0.00,weatherlink.com 1.10,2013-06-14 15:14:00,
2013-06-14 08:29:00,53.2,50.0,30.20,South,183,4.0,9.0,88,0.00,,,0.00,weatherlink.com 1.10,2013-06-14 15:29:00,
2013-06-14 08:44:00,53.6,50.0,30.20,SW,218,0.0,9.0,87,0.00,,,0.00,weatherlink.com 1.10,2013-06-14 15:44:00,
2013-06-14 08:59:00,53.9,50.0,30.21,SW,215,1.0,10.0,86,0.00,,,0.00,weatherlink.com 1.10,2013-06-14 15:59:00,
2013-06-14 09:14:00,54.1,50.0,30.21,SE,142,3.0,10.0,86,0.00,,,0.00,weatherlink.com 1.10,2013-06-14 16:14:00,
2013-06-14 09:29:00,54.2,50.0,30.21,SSE,150,5.0,9.0,86,0.00,,,0.00,weatherlink.com 1.10,2013-06-14 16:29:00,
2013-06-14 09:44:00,54.4,50.0,30.20,South,184,4.0,7.0,85,0.00,,,0.00,weatherlink.com 1.10,2013-06-14 16:44:00,
2013-06-14 09:59:00,54.8,50.0,30.21,SE,136,0.0,8.0,85,0.00,,,0.00,weatherlink.com 1.10,2013-06-14 16:59:00,
2013-06-14 10:14:00,55.3,50.0,30.21,South,169,5.0,8.0,83,0.00,,,0.00,weatherlink.com 1.10,2013-06-14 17:14:00,
2013-06-14 10:29:00,55.5,50.0,30.21,South,188,4.0,5.0,83,0.00,,,0.00,weatherlink.com 1.10,2013-06-14 17:29:00,
2013-06-14 10:44:00,55.4,51.0,30.21,SE,145,0.0,5.0,84,0.00,,,0.00,weatherlink.com 1.10,2013-06-14 17:44:00,
2013-06-14 11:00:00,55.9,51.0,30.20,SSE,163,0.0,5.0,84,0.00,,,0.00,weatherlink.com 1.10,2013-06-14 18:00:00,
2013-06-14 11:15:00,56.6,51.0,30.20,SSE,160,2.0,4.0,81,0.00,,,0.00,weatherlink.com 1.10,2013-06-14 18:15:00,
2013-06-14 11:30:00,57.4,51.0,30.20,SE,136,1.0,7.0,79,0.00,,,0.00,weatherlink.com 1.10,2013-06-14 18:30:00,
2013-06-14 11:45:00,57.5,51.0,30.20,ENE,76,1.0,4.0,78,0.00,,,0.00,weatherlink.com 1.10,2013-06-14 18:45:00,
2013-06-14 12:00:00,57.0,51.0,30.20,SE,125,2.0,4.0,80,0.00,,,0.00,weatherlink.com 1.10,2013-06-14 19:00:00,
2013-06-14 12:15:00,57.2,50.0,30.20,SSE,153,2.0,5.0,78,0.00,,,0.00,weatherlink.com 1.10,2013-06-14 19:15:00,
2013-06-14 12:30:00,57.5,50.0,30.20,SE,144,3.0,6.0,77,0.00,,,0.00,weatherlink.com 1.10,2013-06-14 19:30:00,
2013-06-14 12:45:00,57.6,51.0,30.20,ESE,121,2.0,4.0,78,0.00,,,0.00,weatherlink.com 1.10,2013-06-14 19:45:00,
2013-06-14 13:00:00,57.8,50.0,30.20,East,89,1.0,7.0,76,0.00,,,0.00,weatherlink.com 1.10,2013-06-14 20:00:00,
2013-06-14 13:15:00,58.0,50.0,30.20,SE,129,3.0,5.0,75,0.00,,,0.00,weatherlink.com 1.10,2013-06-14 20:15:00,
2013-06-14 13:30:00,58.6,50.0,30.19,SSE,155,3.0,4.0,72,0.00,,,0.00,weatherlink.com 1.10,2013-06-14 20:30:00,
2013-06-14 13:45:00,58.8,50.0,30.19,SE,136,3.0,9.0,72,0.00,,,0.00,weatherlink.com 1.10,2013-06-14 20:45:00,
2013-06-14 14:00:00,59.1,50.0,30.19,SE,125,3.0,6.0,72,0.00,,,0.00,weatherlink.com 1.10,2013-06-14 21:00:00,
2013-06-14 14:15:00,59.3,50.0,30.19,SSE,166,5.0,6.0,70,0.00,,,0.00,weatherlink.com 1.10,2013-06-14 21:15:00,
2013-06-14 14:30:00,59.8,51.0,30.18,SE,124,5.0,9.0,72,0.00,,,0.00,weatherlink.com 1.10,2013-06-14 21:30:00,
2013-06-14 14:45:00,59.6,51.0,30.18,SE,141,3.0,8.0,72,0.00,,,0.00,weatherlink.com 1.10,2013-06-14 21:45:00,
2013-06-14 15:00:00,60.1,50.0,30.18,SSE,151,4.0,7.0,70,0.00,,,0.00,weatherlink.com 1.10,2013-06-14 22:00:00,
2013-06-14 15:15:00,60.1,50.0,30.17,ESE,103,3.0,7.0,69,0.00,,,0.00,weatherlink.com 1.10,2013-06-14 22:15:00,
2013-06-14 15:30:00,59.9,51.0,30.17,SSE,154,5.0,10.0,72,0.00,,,0.00,weatherlink.com 1.10,2013-06-14 22:30:00,
2013-06-14 15:45:00,60.2,51.0,30.17,SSE,153,4.0,8.0,71,0.00,,,0.00,weatherlink.com 1.10,2013-06-14 22:45:00,
2013-06-14 16:00:00,60.5,51.0,30.16,South,175,2.0,6.0,70,0.00,,,0.00,weatherlink.com 1.10,2013-06-14 23:00:00,
2013-06-14 16:15:00,61.0,51.0,30.16,East,91,2.0,6.0,70,0.00,,,0.00,weatherlink.com 1.10,2013-06-14 23:15:00,
2013-06-14 16:30:00,61.6,51.0,30.15,NE,35,3.0,3.0,69,0.00,,,0.00,weatherlink.com 1.10,2013-06-14 23:30:00,
2013-06-14 16:45:00,61.2,50.0,30.15,ENE,57,2.0,3.0,67,0.00,,,0.00,weatherlink.com 1.10,2013-06-14 23:45:00,
2013-06-14 17:01:00,61.4,51.0,30.14,NE,44,2.0,3.0,68,0.00,,,0.00,weatherlink.com 1.10,2013-06-15 00:01:00,
2013-06-14 17:16:00,61.1,50.0,30.13,NE,50,3.0,3.0,68,0.00,,,0.00,weatherlink.com 1.10,2013-06-15 00:16:00,
2013-06-14 17:31:00,61.6,50.0,30.12,NE,41,1.0,3.0,66,0.00,,,0.00,weatherlink.com 1.10,2013-06-15 00:31:00,
2013-06-14 17:46:00,62.5,50.0,30.12,NE,44,1.0,1.0,65,0.00,,,0.00,weatherlink.com 1.10,2013-06-15 00:46:00,
2013-06-14 18:01:00,63.3,50.0,30.11,NE,56,1.0,4.0,63,0.00,,,0.00,weatherlink.com 1.10,2013-06-15 01:01:00,
2013-06-14 18:16:00,63.4,50.0,30.10,NNE,22,3.0,3.0,61,0.00,,,0.00,weatherlink.com 1.10,2013-06-15 01:16:00,
2013-06-14 18:31:00,63.6,50.0,30.10,NNE,16,3.0,3.0,62,0.00,,,0.00,weatherlink.com 1.10,2013-06-15 01:31:00,
2013-06-14 18:46:00,62.8,50.0,30.09,NNE,17,0.0,1.0,64,0.00,,,0.00,weatherlink.com 1.10,2013-06-15 01:46:00,
2013-06-14 19:01:00,62.0,51.0,30.09,NNE,18,0.0,0.0,68,0.00,,,0.00,weatherlink.com 1.10,2013-06-15 02:01:00,
2013-06-14 19:16:00,61.8,51.0,30.09,ENE,71,0.0,1.0,67,0.00,,,0.00,weatherlink.com 1.10,2013-06-15 02:16:00,
2013-06-14 19:31:00,61.6,51.0,30.08,NE,55,0.0,0.0,69,0.00,,,0.00,weatherlink.com 1.10,2013-06-15 02:31:00,
2013-06-14 19:46:00,61.2,51.0,30.08,NNE,22,1.0,2.0,70,0.00,,,0.00,weatherlink.com 1.10,2013-06-15 02:46:00,
2013-06-14 20:01:00,61.3,51.0,30.08,NNE,23,0.0,1.0,70,0.00,,,0.00,weatherlink.com 1.10,2013-06-15 03:01:00,
2013-06-14 20:16:00,60.9,51.0,30.07,SSE,149,0.0,0.0,71,0.00,,,0.00,weatherlink.com 1.10,2013-06-15 03:16:00,
2013-06-14 20:31:00,60.3,52.0,30.07,WSW,240,1.0,1.0,74,0.00,,,0.00,weatherlink.com 1.10,2013-06-15 03:31:00,
2013-06-14 20:46:00,58.9,52.0,30.07,West,263,1.0,2.0,77,0.00,,,0.00,weatherlink.com 1.10,2013-06-15 03:46:00,
2013-06-14 21:01:00,58.0,52.0,30.07,West,266,1.0,2.0,79,0.00,,,0.00,weatherlink.com 1.10,2013-06-15 04:01:00,
2013-06-14 21:16:00,57.3,51.0,30.06,West,266,1.0,2.0,80,0.00,,,0.00,weatherlink.com 1.10,2013-06-15 04:16:00,
2013-06-14 21:31:00,56.3,51.0,30.07,West,264,1.0,2.0,83,0.00,,,0.00,weatherlink.com 1.10,2013-06-15 04:31:00,
2013-06-14 21:46:00,56.2,52.0,30.07,West,276,1.0,2.0,84,0.00,,,0.00,weatherlink.com 1.10,2013-06-15 04:46:00,
2013-06-14 22:01:00,55.5,51.0,30.07,West,259,1.0,1.0,85,0.00,,,0.00,weatherlink.com 1.10,2013-06-15 05:01:00,
2013-06-14 22:16:00,55.5,51.0,30.06,North,357,1.0,3.0,86,0.00,,,0.00,weatherlink.com 1.10,2013-06-15 05:16:00,
2013-06-14 22:31:00,54.8,51.0,30.06,West,261,1.0,1.0,87,0.00,,,0.00,weatherlink.com 1.10,2013-06-15 05:31:00,
2013-06-14 22:46:00,54.1,51.0,30.06,WSW,249,1.0,2.0,88,0.00,,,0.00,weatherlink.com 1.10,2013-06-15 05:46:00,
2013-06-14 23:01:00,53.6,51.0,30.06,West,266,0.0,1.0,90,0.00,,,0.00,weatherlink.com 1.10,2013-06-15 06:01:00,
2013-06-14 23:16:00,53.5,51.0,30.05,West,266,0.0,1.0,90,0.00,,,0.00,weatherlink.com 1.10,2013-06-15 06:16:00,
2013-06-14 23:31:00,53.6,51.0,30.05,West,280,0.0,3.0,90,0.00,,,0.00,weatherlink.com 1.10,2013-06-15 06:31:00,
2013-06-14 23:46:00,53.1,50.0,30.05,WNW,285,0.0,1.0,90,0.00,,,0.00,weatherlink.com 1.10,2013-06-15 06:46:00,